Terminal Aerodrome Forecast
Issued by NWS Shreveport, LA

Home | Current Version | Previous Version | Text Only | Print | Product List | Glossary On
Versions: 1 2 3 4 5 6 7 8 9 10 11 12 13 14 15 16 17 18 19 20 21
000
FTUS44 KSHV 021140
TAFTXK
TAF
KTXK 021140Z 0212/0312 00000KT P6SM SKC
      TEMPO 0212/0214 5SM BR
     FM021400 12004KT P6SM SCT050
     FM021700 14005KT P6SM SCT050 BKN100
     FM030000 10003KT P6SM SCT250=

USA.gov is the U.S. government's official web portal to all federal, state and local government web resources and services.